DW2363 Weather Reports


Display with metric or nautical units.
time (UTC)temp
F
wind
direction
speed
MPH
gust
MPH
rain 1hr
in
rain 24hr
in
rain mn
in
humidity
%
barometer
mb
20211024214603 60 161 7.0 11.0 0.00 0.00 0.00 82 1012.3
20211024214102 60 180 7.0 11.0 0.00 0.00 0.00 82 1012.4
20211024213602 60 178 7.0 11.0 0.00 0.00 0.00 83 1012.5
20211024213103 59 164 8.0 12.0 0.00 0.00 0.00 85 1012.6
20211024212602 59 153 8.0 14.0 0.00 0.00 0.00 86 1012.5
20211024212103 59 175 7.0 14.0 0.00 0.00 0.00 85 1012.5
20211024211603 59 173 7.0 12.0 0.00 0.00 0.00 86 1012.6
20211024211103 58 159 6.0 12.0 0.00 0.00 0.00 87 1012.6
20211024210605 57 174 6.0 12.0 0.00 0.00 0.00 89 1012.6
20211024210103 57 163 6.0 11.0 0.00 0.00 0.00 89 1012.6
20211024205602 57 137 6.0 11.0 0.00 0.00 0.00 89 1012.6
20211024205102 56 165 6.0 9.0 0.00 0.00 0.00 89 1012.7
20211024204602 56 152 7.0 11.0 0.00 0.00 0.00 89 1012.8
20211024204101 57 150 7.0 11.0 0.00 0.00 0.00 89 1012.9
20211024203601 57 137 7.0 11.0 0.00 0.00 0.00 88 1013.1
20211024203101 57 155 5.0 10.0 0.00 0.00 0.00 87 1013.0
20211024202601 57 166 5.0 9.0 0.00 0.00 0.00 87 1013.0
20211024202100 57 180 6.0 10.0 0.00 0.00 0.00 88 1013.1
20211024201600 57 202 6.0 10.0 0.00 0.00 0.00 88 1013.1
20211024201100 57 200 6.0 10.0 0.00 0.00 0.00 88 1013.2
20211024200600 57 174 5.0 10.0 0.00 0.00 0.00 88 1013.1
20211024200101 58 168 5.0 9.0 0.00 0.00 0.00 87 1013.1
20211024195600 58 144 5.0 10.0 0.00 0.00 0.00 87 1013.2
20211024195100 58 130 5.0 10.0 0.00 0.00 0.00 88 1013.4
20211024194600 58 138 6.0 11.0 0.00 0.00 0.00 88 1013.5
20211024194100 58 172 6.0 11.0 0.00 0.00 0.00 88 1013.5
20211024193600 58 161 7.0 12.0 0.00 0.00 0.00 89 1013.6
20211024193100 57 166 7.0 12.0 0.00 0.00 0.00 89 1013.7
20211024192600 57 194 6.0 12.0 0.00 0.00 0.00 89 1013.7
20211024192056 57 191 5.0 10.0 0.00 0.00 0.00 89 1013.7
20211024191557 57 132 5.0 10.0 0.00 0.00 0.00 89 1013.7
20211024191056 57 154 4.0 10.0 0.00 0.00 0.00 90 1013.8
20211024190557 57 146 4.0 7.0 0.00 0.00 0.00 91 1014.0
20211024190057 56 186 4.0 9.0 0.00 0.00 0.00 91 1013.9
20211024185556 56 185 5.0 9.0 0.00 0.00 0.00 91 1013.9
20211024185056 56 182 5.0 8.0 0.00 0.00 0.00 91 1014.0
20211024184556 56 130 5.0 9.0 0.00 0.00 0.00 91 1013.9
20211024184056 56 181 5.0 10.0 0.00 0.00 0.00 91 1014.0
20211024183557 57 201 5.0 10.0 0.00 0.00 0.00 89 1014.0
20211024183057 57 155 4.0 9.0 0.00 0.00 0.00 89 1013.9
20211024182556 58 178 4.0 8.0 0.00 0.00 0.00 88 1014.0
20211024182056 58 140 5.0 9.0 0.00 0.00 0.00 89 1014.0
20211024181556 58 147 5.0 9.0 0.00 0.00 0.00 88 1013.9
20211024181056 57 127 5.0 9.0 0.00 0.00 0.00 90 1013.8
20211024180554 57 127 5.0 8.0 0.00 0.00 0.00 91 1013.8
20211024180054 56 159 5.0 10.0 0.00 0.00 0.00 91 1014.0
20211024175554 56 194 4.0 10.0 0.00 0.00 0.00 90 1014.0
20211024175055 56 200 3.0 9.0 0.00 0.00 0.00 91 1014.0
20211024174554 56 180 4.0 9.0 0.00 0.00 0.00 91 1014.0
20211024174052 56 162 4.0 9.0 0.00 0.00 0.00 92 1013.9
20211024173552 56 84 3.0 8.0 0.00 0.00 0.00 92 1013.7
20211024173052 56 117 3.0 8.0 0.00 0.00 0.00 92 1013.7
20211024172552 55 118 3.0 7.0 0.00 0.00 0.00 92 1013.8
20211024172053 55 151 2.0 7.0 0.00 0.00 0.00 93 1013.7
20211024171552 55 57 2.0 5.0 0.00 0.00 0.00 93 1013.8
20211024171050 55 101 2.0 5.0 0.00 0.00 0.00 94 1013.8
20211024170550 54 254 2.0 5.0 0.00 0.00 0.00 93 1013.8
20211024170050 54 145 3.0 6.0 0.00 0.00 0.00 93 1013.8
20211024165549 55 162 4.0 8.0 0.00 0.00 0.00 93 1013.8
20211024165048 55 166 4.0 8.0 0.00 0.00 0.00 93 1013.8
20211024164548 54 166 4.0 8.0 0.00 0.00 0.00 92 1013.9
20211024164046 55 157 5.0 9.0 0.00 0.00 0.00 92 1013.8
20211024163546 55 134 5.0 9.0 0.00 0.00 0.00 93 1013.7
20211024163045 54 111 5.0 8.0 0.00 0.00 0.00 93 1013.6
20211024162546 54 132 5.0 9.0 0.00 0.00 0.00 93 1013.7
20211024162046 54 134 5.0 9.0 0.00 0.00 0.00 94 1013.8
20211024161547 54 161 5.0 8.0 0.00 0.00 0.00 94 1013.7
20211024161046 54 126 5.0 8.0 0.00 0.00 0.00 93 1013.7
20211024160546 54 136 5.0 7.0 0.00 0.00 0.00 93 1013.6
20211024160046 54 110 4.0 7.0 0.00 0.00 0.00 93 1013.5
20211024155546 54 126 4.0 8.0 0.00 0.00 0.00 93 1013.6
20211024155044 54 130 4.0 8.0 0.00 0.00 0.00 93 1013.5
20211024154544 54 144 4.0 7.0 0.00 0.00 0.00 93 1013.4
20211024154044 54 116 4.0 8.0 0.00 0.00 0.00 94 1013.2
20211024153543 54 107 4.0 8.0 0.00 0.00 0.00 95 1013.0
20211024153043 54 140 3.0 7.0 0.00 0.00 0.00 95 1012.9
20211024152544 54 136 2.0 4.0 0.00 0.00 0.00 95 1012.9
20211024152043 53 103 2.0 3.0 0.00 0.00 0.00 95 1012.9
20211024151543 53 38 3.0 4.0 0.00 0.00 0.00 95 1012.7
20211024151043 53 18 3.0 4.0 0.00 0.00 0.00 95 1012.7
20211024150544 53 26 3.0 4.0 0.00 0.00 0.00 96 1012.7
20211024150044 53 29 3.0 4.0 0.00 0.00 0.00 96 1012.7
20211024145544 53 44 3.0 4.0 0.00 0.00 0.00 96 1012.6
20211024145044 52 38 3.0 4.0 0.00 0.00 0.00 96 1012.5
20211024144542 52 28 3.0 4.0 0.00 0.00 0.00 96 1012.5
20211024144042 52 14 4.0 5.0 0.00 0.00 0.00 96 1012.5
20211024143542 52 12 4.0 5.0 0.00 0.00 0.00 96 1012.5
20211024143040 52 10 4.0 5.0 0.00 0.00 0.00 96 1012.4
20211024142540 52 0 5.0 6.0 0.00 0.00 0.00 96 1012.4
20211024142040 52 0 5.0 6.0 0.00 0.00 0.00 96 1012.4
20211024141540 52 5 4.0 6.0 0.00 0.00 0.00 96 1012.3
20211024141040 52 5 5.0 7.0 0.00 0.00 0.00 96 1012.2
20211024140540 52 5 5.0 7.0 0.00 0.00 0.00 96 1012.3
20211024140040 52 0 3.0 5.0 0.00 0.00 0.00 96 1012.2
20211024135539 52 350 2.0 5.0 0.00 0.00 0.00 96 1012.3
20211024135037 52 343 2.0 5.0 0.00 0.00 0.00 96 1012.2
20211024134537 51 343 3.0 5.0 0.00 0.00 0.00 96 1012.4
20211024134038 51 348 4.0 5.0 0.00 0.00 0.00 96 1012.3
20211024133538 51 355 3.0 4.0 0.00 0.00 0.00 96 1012.2
20211024133036 51 355 2.0 4.0 0.00 0.00 0.00 96 1012.3
20211024132536 51 325 1.0 3.0 0.00 0.00 0.00 96 1012.3
20211024132036 51 137 0.0 1.0 0.00 0.00 0.00 96 1012.3
20211024131536 51 137 0.0 3.0 0.00 0.01 0.00 96 1012.4
20211024131036 51 137 1.0 3.0 0.00 0.01 0.00 96 1012.2
20211024130535 51 136 1.0 3.0 0.00 0.01 0.00 96 1012.3
20211024130036 51 54 1.0 3.0 0.00 0.01 0.00 96 1012.3
20211024125535 51 57 1.0 3.0 0.00 0.01 0.00 96 1012.3
20211024125035 51 186 1.0 2.0 0.00 0.01 0.00 96 1012.1
20211024124536 51 187 1.0 2.0 0.00 0.01 0.00 96 1012.1
20211024124036 51 186 2.0 3.0 0.00 0.01 0.00 96 1012.1
20211024123536 51 157 2.0 3.0 0.00 0.01 0.00 96 1012.1
20211024123034 51 144 2.0 5.0 0.00 0.01 0.00 96 1012.2
20211024122534 51 142 2.0 5.0 0.00 0.01 0.00 96 1012.2
20211024122034 52 140 2.0 4.0 0.00 0.01 0.00 96 1012.0
20211024121533 52 132 3.0 4.0 0.00 0.01 0.00 96 1011.9
20211024121033 52 132 3.0 4.0 0.00 0.01 0.00 96 1011.9
20211024120533 52 138 3.0 4.0 0.00 0.01 0.00 96 1011.9
20211024120031 52 143 2.0 4.0 0.00 0.01 0.00 96 1011.9
20211024115531 52 141 2.0 4.0 0.00 0.01 0.00 96 1011.7
20211024115030 52 113 3.0 4.0 0.00 0.01 0.00 95 1011.7
20211024114529 52 128 2.0 4.0 0.00 0.01 0.00 95 1011.6
20211024114029 52 84 2.0 4.0 0.00 0.01 0.00 95 1011.6
20211024113529 52 80 3.0 6.0 0.00 0.01 0.00 95 1011.6
20211024113029 52 90 3.0 6.0 0.00 0.01 0.00 95 1011.6
20211024112527 52 117 3.0 6.0 0.00 0.01 0.00 95 1011.5
20211024112027 52 132 2.0 5.0 0.00 0.01 0.00 95 1011.6
20211024111527 52 130 3.0 5.0 0.00 0.01 0.00 94 1011.5
20211024111027 52 132 2.0 4.0 0.00 0.01 0.00 94 1011.4
20211024110527 52 144 2.0 4.0 0.00 0.01 0.00 94 1011.5
20211024110026 52 136 2.0 4.0 0.00 0.01 0.00 94 1011.7
20211024105525 53 113 2.0 4.0 0.00 0.01 0.00 94 1011.6
20211024105025 53 98 3.0 4.0 0.00 0.01 0.00 94 1011.7
20211024104525 53 96 3.0 7.0 0.00 0.01 0.00 93 1011.7
20211024104025 53 115 4.0 7.0 0.00 0.01 0.00 93 1011.7
20211024103525 53 112 3.0 6.0 0.00 0.02 0.00 93 1011.6
20211024103025 53 138 3.0 5.0 0.00 0.02 0.00 92 1011.7
20211024102525 53 141 3.0 5.0 0.00 0.02 0.00 92 1011.7
20211024102025 53 150 2.0 4.0 0.00 0.02 0.00 92 1011.9
20211024101525 53 136 2.0 4.0 0.00 0.02 0.00 92 1011.9
20211024101024 53 132 3.0 5.0 0.00 0.02 0.00 92 1012.0
20211024100523 53 128 4.0 5.0 0.00 0.02 0.00 91 1012.0
20211024100023 53 131 4.0 5.0 0.00 0.02 0.00 91 1011.9
20211024095523 53 126 4.0 4.0 0.00 0.02 0.00 91 1011.9
20211024095023 53 129 3.0 4.0 0.00 0.02 0.00 91 1012.0
20211024094523 53 134 4.0 7.0 0.00 0.02 0.00 91 1012.1
20211024094023 53 131 5.0 7.0 0.00 0.02 0.00 91 1012.1
20211024093523 53 123 6.0 8.0 0.00 0.02 0.00 91 1012.0
20211024093022 53 131 6.0 8.0 0.00 0.02 0.00 91 1011.9
20211024092523 54 136 5.0 7.0 0.00 0.02 0.00 90 1012.0
20211024092023 54 138 5.0 7.0 0.00 0.02 0.00 90 1012.0
20211024091521 54 138 5.0 7.0 0.00 0.02 0.00 89 1012.0
20211024091021 54 145 5.0 8.0 0.00 0.02 0.00 90 1012.1
20211024090521 54 128 6.0 8.0 0.00 0.02 0.00 90 1012.1
20211024090023 54 132 7.0 8.0 0.00 0.02 0.00 89 1011.9
20211024085521 54 128 8.0 8.0 0.00 0.02 0.00 89 1011.9
20211024085021 54 131 8.0 8.0 0.00 0.02 0.00 89 1011.9
20211024084521 54 133 8.0 9.0 0.00 0.02 0.00 89 1011.9
20211024084020 54 128 8.0 9.0 0.00 0.02 0.00 89 1012.0
20211024083520 54 129 7.0 9.0 0.00 0.02 0.00 89 1011.9
20211024083020 54 81 7.0 8.0 0.00 0.02 0.00 89 1012.0
20211024082516 54 80 8.0 9.0 0.00 0.02 0.00 89 1011.9
20211024082017 54 97 8.0 9.0 0.00 0.02 0.00 89 1011.9
20211024081517 54 101 8.0 9.0 0.00 0.02 0.00 88 1011.9
20211024081017 54 76 8.0 9.0 0.00 0.02 0.00 88 1012.0
20211024080517 54 86 7.0 9.0 0.00 0.02 0.00 89 1012.0
20211024080017 54 84 6.0 8.0 0.00 0.02 0.00 89 1012.1
20211024075514 54 91 6.0 8.0 0.00 0.02 0.00 89 1012.1
20211024075015 54 126 6.0 9.0 0.00 0.02 0.00 88 1012.1
20211024074514 55 122 7.0 9.0 0.00 0.02 0.00 88 1012.2
20211024074012 55 126 7.0 9.0 0.00 0.02 0.00 88 1012.2
20211024073513 55 137 8.0 9.0 0.00 0.02 0.00 88 1012.0
20211024073013 55 134 7.0 9.0 0.00 0.02 0.00 88 1012.1
20211024072512 55 129 7.0 9.0 0.00 0.02 0.00 87 1012.1
20211024072012 55 137 6.0 9.0 0.00 0.02 0.00 86 1012.1
20211024071513 55 121 6.0 8.0 0.00 0.02 0.00 85 1012.1
20211024071012 56 119 5.0 8.0 0.00 0.02 0.00 84 1012.0
20211024070513 56 118 4.0 7.0 0.00 0.02 0.00 83 1012.0
20211024070012 56 126 3.0 5.0 0.00 0.02 0.00 82 1012.0
20211024065512 56 136 3.0 4.0 0.00 0.02 0.02 82 1012.1
20211024065012 56 142 4.0 5.0 0.00 0.02 0.02 82 1012.1
20211024064511 56 140 4.0 5.0 0.00 0.02 0.02 83 1012.1
20211024064010 56 122 4.0 6.0 0.00 0.02 0.02 83 1012.1
20211024063510 55 123 3.0 6.0 0.00 0.02 0.02 84 1012.1
20211024063010 55 128 3.0 4.0 0.00 0.02 0.02 84 1012.2
20211024062508 55 132 3.0 5.0 0.00 0.02 0.02 84 1012.3
20211024062008 56 130 3.0 5.0 0.00 0.02 0.02 84 1012.2
20211024061507 56 153 3.0 5.0 0.00 0.02 0.02 83 1012.2
20211024061006 56 153 2.0 5.0 0.00 0.02 0.02 83 1012.4
20211024060506 56 161 1.0 4.0 0.00 0.02 0.02 84 1012.3
20211024060007 56 193 2.0 3.0 0.00 0.02 0.02 84 1012.4
20211024055507 56 193 2.0 3.0 0.00 0.02 0.02 84 1012.5
20211024055004 56 193 3.0 4.0 0.00 0.02 0.02 84 1012.5
20211024054504 56 185 2.0 4.0 0.00 0.02 0.02 84 1012.5
20211024054004 56 165 2.0 5.0 0.00 0.02 0.02 85 1012.5
20211024053502 56 165 3.0 5.0 0.00 0.02 0.02 84 1012.4
20211024053001 56 155 3.0 5.0 0.00 0.02 0.02 84 1012.5
20211024052500 56 146 2.0 4.0 0.00 0.02 0.02 85 1012.4
20211024052000 56 96 2.0 3.0 0.00 0.02 0.02 85 1012.4
20211024051500 56 79 2.0 3.0 0.00 0.02 0.02 85 1012.3
20211024051000 56 5 1.0 2.0 0.00 0.02 0.02 85 1012.4
20211024050459 56 5 1.0 2.0 0.00 0.02 0.02 86 1012.5
20211024050000 56 5 2.0 4.0 0.00 0.02 0.02 85 1012.4
20211024045500 56 5 2.0 4.0 0.00 0.02 0.02 85 1012.4
20211024045000 56 175 1.0 3.0 0.00 0.02 0.02 85 1012.4
20211024044500 56 207 0.0 2.0 0.00 0.02 0.02 85 1012.1
20211024044000 56 207 1.0 2.0 0.00 0.02 0.02 85 1012.2
20211024043458 55 207 3.0 5.0 0.00 0.02 0.02 85 1012.1
20211024042958 55 207 3.0 5.0 0.00 0.02 0.02 85 1012.1
20211024042459 55 192 2.0 4.0 0.00 0.02 0.02 86 1011.7
20211024042000 55 184 2.0 4.0 0.00 0.02 0.02 87 1011.9
20211024041458 55 205 2.0 4.0 0.00 0.02 0.02 87 1011.6
20211024040957 55 205 3.0 4.0 0.00 0.02 0.02 87 1011.7
20211024040458 55 205 3.0 4.0 0.00 0.02 0.02 87 1011.6
20211024035958 55 201 3.0 4.0 0.00 0.02 0.02 88 1011.5
20211024035459 55 201 3.0 4.0 0.00 0.02 0.02 87 1011.5
20211024034957 55 201 3.0 4.0 0.00 0.02 0.02 88 1011.5
20211024034458 55 180 3.0 3.0 0.00 0.02 0.02 88 1011.4
20211024033958 55 192 2.0 3.0 0.00 0.02 0.02 88 1011.5
20211024033458 55 207 2.0 3.0 0.00 0.02 0.02 88 1011.6
20211024032958 55 207 3.0 3.0 0.00 0.02 0.02 88 1011.5
20211024032456 55 231 3.0 4.0 0.00 0.02 0.02 88 1011.6
20211024031956 55 217 4.0 5.0 0.00 0.02 0.02 89 1011.6
20211024031455 55 201 4.0 5.0 0.00 0.02 0.02 89 1011.6
20211024030956 55 201 4.0 5.0 0.00 0.02 0.02 88 1011.7
20211024030457 55 200 3.0 5.0 0.00 0.02 0.02 88 1011.6
20211024025956 55 197 3.0 5.0 0.00 0.02 0.02 88 1011.6
20211024025457 55 166 3.0 5.0 0.00 0.02 0.02 88 1011.7
20211024024955 56 156 3.0 5.0 0.00 0.02 0.02 87 1011.5
20211024024454 56 202 3.0 5.0 0.00 0.02 0.02 86 1011.5
20211024023954 56 216 3.0 5.0 0.00 0.02 0.02 86 1011.7
20211024023453 56 227 4.0 5.0 0.00 0.02 0.02 86 1011.6
20211024022952 56 210 4.0 5.0 0.00 0.02 0.02 86 1011.6
20211024022452 56 215 4.0 8.0 0.00 0.02 0.02 86 1011.6
20211024021951 56 213 4.0 8.0 0.00 0.02 0.02 86 1011.6
20211024021452 56 239 6.0 9.0 0.00 0.02 0.02 87 1011.5
20211024020952 56 250 7.0 10.0 0.00 0.02 0.02 87 1011.7
20211024020450 55 257 7.0 10.0 0.00 0.02 0.02 87 1011.9
20211024015950 55 233 8.0 10.0 0.00 0.02 0.02 87 1011.5
20211024015449 55 246 8.0 10.0 0.00 0.02 0.02 87 1011.5
20211024014949 55 245 6.0 9.0 0.00 0.02 0.02 87 1011.5
20211024014449 55 239 6.0 7.0 0.00 0.02 0.02 87 1011.4
20211024013949 55 229 5.0 7.0 0.00 0.02 0.02 88 1011.2
20211024013449 56 236 5.0 7.0 0.00 0.02 0.02 88 1011.4
20211024012949 56 235 5.0 8.0 0.00 0.02 0.02 88 1011.5
20211024012450 56 237 5.0 8.0 0.00 0.02 0.02 87 1011.6
20211024011950 56 238 5.0 7.0 0.00 0.02 0.02 87 1011.6
20211024011450 56 243 5.0 7.0 0.00 0.02 0.02 87 1011.6
20211024010949 56 252 5.0 7.0 0.00 0.02 0.02 88 1011.5
20211024010450 55 244 5.0 7.0 0.00 0.02 0.02 89 1011.6
20211024005949 55 250 5.0 7.0 0.00 0.02 0.02 91 1011.6
20211024005450 55 254 5.0 7.0 0.00 0.02 0.02 92 1011.7
20211024004949 55 258 5.0 7.0 0.00 0.02 0.02 93 1011.6
20211024004451 55 227 5.0 7.0 0.00 0.02 0.02 93 1011.4
20211024003949 55 242 4.0 7.0 0.00 0.02 0.02 93 1011.2
20211024003449 55 211 5.0 7.0 0.00 0.02 0.02 93 1010.9
20211024002947 55 235 5.0 8.0 0.00 0.02 0.02 93 1011.3
20211024002447 55 220 5.0 8.0 0.00 0.02 0.02 93 1011.1
20211024001947 55 221 6.0 8.0 0.00 0.02 0.02 93 1011.2
20211024001447 55 218 6.0 8.0 0.00 0.02 0.02 93 1011.0
20211024000945 55 227 6.0 8.0 0.00 0.02 0.02 93 1010.9
20211024000446 55 219 6.0 9.0 0.00 0.02 0.02 93 1011.0
20211023235945 55 201 6.0 9.0 0.00 0.02 0.02 93 1011.1
20211023235445 55 229 7.0 10.0 0.00 0.02 0.02 93 1011.3
20211023234945 55 213 7.0 10.0 0.00 0.02 0.02 93 1011.3
20211023234445 55 213 7.0 10.0 0.00 0.02 0.02 93 1011.3
20211023233943 56 214 8.0 10.0 0.00 0.02 0.02 93 1011.2
20211023233443 56 227 7.0 10.0 0.00 0.02 0.02 93 1011.2
20211023232943 56 190 7.0 10.0 0.00 0.02 0.02 93 1011.1
20211023232443 56 198 8.0 10.0 0.00 0.02 0.02 92 1011.2
20211023231943 56 186 8.0 10.0 0.00 0.02 0.02 92 1011.3
20211023231443 56 195 8.0 12.0 0.00 0.02 0.02 91 1011.4
20211023230943 56 186 7.0 12.0 0.00 0.02 0.02 91 1011.4
20211023230441 56 186 7.0 10.0 0.00 0.02 0.02 90 1011.5
20211023225941 57 200 6.0 9.0 0.00 0.02 0.02 89 1011.5
20211023225441 58 218 6.0 10.0 0.00 0.02 0.02 89 1011.5
20211023224942 58 163 6.0 10.0 0.00 0.02 0.02 87 1011.5
20211023224442 58 207 6.0 11.0 0.00 0.02 0.02 86 1011.4
20211023223941 59 200 5.0 11.0 0.00 0.02 0.02 88 1011.5
20211023223441 58 169 5.0 9.0 0.00 0.02 0.02 89 1011.5
20211023222941 58 222 5.0 9.0 0.00 0.02 0.02 89 1011.6
20211023222440 58 202 5.0 9.0 0.00 0.02 0.02 89 1011.5
20211023221940 58 231 7.0 11.0 0.00 0.02 0.02 89 1011.5
20211023221440 59 183 7.0 12.0 0.00 0.02 0.02 91 1011.6
20211023220940 58 194 7.0 12.0 0.00 0.02 0.02 90 1011.3
20211023220439 58 187 7.0 12.0 0.00 0.02 0.02 91 1011.1
20211023215940 58 211 7.0 12.0 0.00 0.02 0.02 92 1011.0
20211023215440 57 194 8.0 11.0 0.00 0.02 0.02 94 1011.0
20211023214940 57 196 7.0 11.0 0.00 0.02 0.02 95 1011.0